Simultaneous Nadir Overpasses (SNOs) Predictions

Prediction of SNOs between AQUA and METOP-A Satellite Orbit:

Table of predicted SNOs for the next 14.0 days since TLE Epoch: 6/14/2019
Index Date (AQUA) Time (AQUA) Lat,Lon (AQUA) SZA (AQUA ) Date (METOP-A) Time (METOP-A) Lat,Lon (METOP-A) SZA (METOP-A ) Distance(km) Time Diff (sec)
1 06/16/2019 11:24:02 -75.02,-179.50 128.22 06/16/2019 11:22:51 -74.96, 179.49 128.21 29.99 71
2 06/16/2019 12:13:33 75.21, -12.38 52.00 06/16/2019 12:13:26 75.20, -12.48 52.00 3.14 7
3 06/16/2019 13:03:00 -75.26, 155.12 127.95 06/16/2019 13:04:06 -75.27, 155.05 127.94 2.30 66
4 06/19/2019 06:58:20 -75.20,-113.55 128.08 06/19/2019 06:57:10 -75.20,-113.47 128.07 2.34 70
5 06/19/2019 07:47:48 75.25, 53.95 51.98 06/19/2019 07:47:49 75.25, 54.02 51.98 2.02 1
6 06/19/2019 08:37:16 -75.35,-138.67 127.92 06/19/2019 08:38:29 -75.32,-138.44 127.96 6.96 73
7 06/22/2019 02:32:33 -75.19, -47.08 128.10 06/22/2019 02:31:33 -75.20, -47.11 128.08 1.34 60
8 06/22/2019 03:22:01 75.25, 120.40 51.97 06/22/2019 03:22:12 75.25, 120.37 51.97 0.80 11
9 06/22/2019 04:11:36 -75.68, -73.18 127.55 06/22/2019 04:12:44 -75.70, -70.93 127.65 61.83 68
10 06/24/2019 22:06:48 -75.23, 19.25 128.01 06/24/2019 22:05:57 -75.20, 19.25 128.03 3.71 51
11 06/24/2019 22:56:15 75.25,-173.16 52.01 06/24/2019 22:56:36 75.24,-173.28 52.01 3.44 21
12 06/27/2019 17:41:02 -75.23, 85.70 127.92 06/27/2019 17:40:20 -75.24, 85.74 127.90 2.12 42
13 06/27/2019 18:30:30 75.30,-106.86 52.17 06/27/2019 18:30:59 75.29,-106.79 52.15 2.45 29




NCC Satellite Simultaneous Nadir Overpasses (SNOs) Prediction Service
